Location: Asheville, NC
(35.6000°N, 82.5500°W)
Time: 03:03:36
(UTC-04:00)

N. Korean satellite - Pass Details

Date: 06 January 2018
Orbit: 458 x 513 km, 97.2° (Epoch: 21 April)

Event Time Altitude Azimuth Distance (km) Brightness Sun altitude
Rises 18:07:16 0° 153° (SSE) 2,610 10.2 -7.3°
Reaches altitude 10° 18:09:25 10° 147° (SSE) 1,723 9.2 -7.7°
Maximum altitude 18:12:57 43° 75° (ENE) 724 7.0 -8.4°
Drops below altitude 10° 18:16:28 10° 3° (N) 1,713 9.1 -9.0°
Sets 18:18:36 0° 357° (N) 2,592 10.1 -9.4°
